Radiation Dose measured at exhaust stack monitor of Fukushima Daiichi Nuclear Power Station
Date,Time,Unit 5 6 shared exhaust cylinders,Wind Direction,Wind Velocity(m/s)
2023/04/28,00:00,3.7,south,1.5
2023/04/28,00:10,3.7,south-southwest,1.7
2023/04/28,00:20,3.6,south,2.5
2023/04/28,00:30,3.7,south,2.3
2023/04/28,00:40,3.6,south,2.0
2023/04/28,00:50,3.4,south-southwest,2.2
2023/04/28,01:00,3.8,south,2.6
2023/04/28,01:10,3.7,south-southeast,2.2
2023/04/28,01:20,3.6,south-southeast,2.3
2023/04/28,01:30,3.7,southeast,2.3
2023/04/28,01:40,3.8,southeast,1.5
2023/04/28,01:50,3.6,south-southeast,2.3
2023/04/28,02:00,3.7,south,4.3
2023/04/28,02:10,3.6,south,4.4
2023/04/28,02:20,3.6,south-southeast,2.0
2023/04/28,02:30,3.5,south-southeast,3.4
2023/04/28,02:40,3.7,south-southeast,3.9
2023/04/28,02:50,3.6,south-southeast,4.4
2023/04/28,03:00,3.7,south-southeast,6.2
2023/04/28,03:10,3.6,south,5.6
2023/04/28,03:20,3.7,south,5.7
2023/04/28,03:30,3.7,south,5.4
2023/04/28,03:40,3.7,south,5.2
2023/04/28,03:50,3.7,south,5.4
2023/04/28,04:00,3.7,south-southwest,4.6
2023/04/28,04:10,3.7,south-southwest,4.7
2023/04/28,04:20,3.7,south-southwest,4.7
2023/04/28,04:30,3.9,southwest,4.2
2023/04/28,04:40,3.7,south-southwest,4.0
2023/04/28,04:50,3.6,south-southwest,3.3
2023/04/28,05:00,3.7,south-southwest,2.6
2023/04/28,05:10,3.6,south-southwest,2.3
2023/04/28,05:20,3.8,south-southwest,2.6
2023/04/28,05:30,3.6,south,3.2
2023/04/28,05:40,3.6,south,3.3
2023/04/28,05:50,3.8,south,3.8
2023/04/28,06:00,3.7,south,4.0
2023/04/28,06:10,3.7,south,3.3
2023/04/28,06:20,3.7,southeast,1.7
2023/04/28,06:30,3.6,east-southeast,1.2
2023/04/28,06:40,3.6,-,CALM
2023/04/28,06:50,3.5,-,CALM
2023/04/28,07:00,3.7,-,CALM
2023/04/28,07:10,3.8,southeast,0.6
2023/04/28,07:20,3.8,north,0.9
2023/04/28,07:30,3.7,northeast,1.1
2023/04/28,07:40,3.6,-,CALM
2023/04/28,07:50,3.7,southeast,0.9
2023/04/28,08:00,3.5,southeast,1.2
2023/04/28,08:10,3.6,southeast,2.6
2023/04/28,08:20,3.7,southeast,2.0
2023/04/28,08:30,3.6,southeast,1.7
2023/04/28,08:40,3.8,-,CALM
2023/04/28,08:50,3.7,south,0.9
2023/04/28,09:00,3.5,southeast,1.5
2023/04/28,09:10,3.7,east,1.7
2023/04/28,09:20,3.7,west-northwest,0.6
2023/04/28,09:30,3.6,west-northwest,2.6
2023/04/28,09:40,3.6,west-northwest,5.4
2023/04/28,09:50,3.7,west-northwest,7.7
2023/04/28,10:00,3.7,west,5.6
2023/04/28,10:10,3.8,west,5.5
2023/04/28,10:20,3.8,west,3.7
2023/04/28,10:30,3.8,west,5.3
2023/04/28,10:40,3.8,west-southwest,5.5
2023/04/28,10:50,3.5,southwest,5.8
2023/04/28,11:00,3.7,southwest,2.5
2023/04/28,11:10,3.8,south-southeast,5.6
2023/04/28,11:20,3.7,south-southeast,8.9
2023/04/28,11:30,3.6,south,8.4
2023/04/28,11:40,3.8,south,8.6
2023/04/28,11:50,3.7,south-southeast,10.3
2023/04/28,12:00,3.6,south,11.6
2023/04/28,12:10,3.6,south-southeast,13.3
2023/04/28,12:20,3.8,south,13.5
2023/04/28,12:30,3.5,south-southeast,12.2
2023/04/28,12:40,3.7,south-southeast,11.1
2023/04/28,12:50,3.6,south-southeast,11.3
2023/04/28,13:00,3.6,south-southeast,12.7
2023/04/28,13:10,3.7,south-southeast,13.8
2023/04/28,13:20,3.7,south-southeast,13.9
2023/04/28,13:30,3.6,south-southeast,14.4
2023/04/28,13:40,3.6,south-southeast,12.7
2023/04/28,13:50,3.7,south-southeast,13.3
2023/04/28,14:00,3.8,south-southeast,12.0
2023/04/28,14:10,3.8,south-southeast,12.7
2023/04/28,14:20,3.6,south-southeast,12.5
2023/04/28,14:30,3.5,south-southeast,12.0
2023/04/28,14:40,3.5,south-southeast,10.6
2023/04/28,14:50,3.5,south-southeast,14.1
2023/04/28,15:00,3.7,south-southeast,15.3
2023/04/28,15:10,3.8,south-southeast,15.2
2023/04/28,15:20,3.7,south-southeast,14.4
2023/04/28,15:30,3.8,south,13.9
2023/04/28,15:40,3.6,south,12.8
2023/04/28,15:50,3.6,south,9.4
2023/04/28,16:00,3.6,south,8.2
2023/04/28,16:10,3.6,south,11.3
2023/04/28,16:20,3.6,south-southeast,13.3
2023/04/28,16:30,3.6,south,11.8
2023/04/28,16:40,3.7,south,12.2
2023/04/28,16:50,3.7,south-southeast,12.8
2023/04/28,17:00,3.7,south,11.0
2023/04/28,17:10,3.8,south,11.3
2023/04/28,17:20,3.7,south,8.2
2023/04/28,17:30,3.8,south,5.9
2023/04/28,17:40,3.6,south,5.9
2023/04/28,17:50,3.7,south,6.3
2023/04/28,18:00,3.5,south,7.1
2023/04/28,18:10,3.5,south,7.1
2023/04/28,18:20,3.6,south,6.0
2023/04/28,18:30,3.7,south,6.0
2023/04/28,18:40,3.7,south,6.7
2023/04/28,18:50,3.6,south,6.7
2023/04/28,19:00,3.7,south,6.4
2023/04/28,19:10,3.7,south,5.8
2023/04/28,19:20,3.8,south,4.1
2023/04/28,19:30,3.7,south,4.0
2023/04/28,19:40,3.6,south,4.6
2023/04/28,19:50,3.7,south,4.5
2023/04/28,20:00,3.6,south,3.5
2023/04/28,20:10,3.7,south-southwest,2.6
2023/04/28,20:20,3.7,south-southwest,2.0
2023/04/28,20:30,3.7,southwest,1.5
2023/04/28,20:40,3.6,south-southwest,2.0
2023/04/28,20:50,3.8,south-southwest,2.5
2023/04/28,21:00,3.8,south-southwest,3.0
2023/04/28,21:10,3.6,south-southwest,2.8
2023/04/28,21:20,3.5,southwest,2.0
2023/04/28,21:30,3.8,south,0.8
2023/04/28,21:40,3.6,south,1.2
2023/04/28,21:50,3.5,southwest,2.0
2023/04/28,22:00,3.8,southwest,3.4
2023/04/28,22:10,3.6,south-southwest,3.1
2023/04/28,22:20,3.8,south,3.9
2023/04/28,22:30,3.6,south-southwest,4.4
2023/04/28,22:40,3.7,south,5.1
2023/04/28,22:50,3.6,south-southwest,3.6
2023/04/28,23:00,3.7,south,3.6
2023/04/28,23:10,3.8,south,4.1
2023/04/28,23:20,3.7,south,6.0
2023/04/28,23:30,3.7,south,5.5
2023/04/28,23:40,3.7,south-southwest,3.5
2023/04/28,23:50,3.7,south,3.2
